SAOCOM 1A

Last updated on Sun Jan 18 2026 00:02:14 GMT+0000 (Coordinated Universal Time)

1 43641U 18076A 26017.58751323 -.00000207 00000+0 -19507-4 0 9996 2 43641 97.8850 206.4886 0001496 86.2162 273.9222 14.82148618393797
UTC large
Height (km)
Speed (km/s)
/
Latitude / Longitude
Inclination (degrees)
Orbital Period (minutes)
Azimuth
Elevation
Range (km)
Doppler Factor

Next 0 passes for location: London (51.5072 / 0.1276)

Sorry there are no passes over London.